TimeAKDT,TemperatureF,Dew PointF,Humidity,Sea Level PressureIn,VisibilityMPH,Wind Direction,Wind SpeedMPH,Gust SpeedMPH,PrecipitationIn,Events,Conditions,WindDirDegrees,DateUTC
12:55 AM,6.1,2.1,84,30.04,10.0,SW,3.5,-,N/A,,Clear,230,2012-11-01 08:55:00
1:55 AM,0.1,-3.3,85,30.05,10.0,Calm,Calm,-,N/A,,Clear,0,2012-11-01 09:55:00
2:16 AM,1.4,-2.2,85,30.05,7.0,Calm,Calm,-,N/A,,Clear,0,2012-11-01 10:16:00
2:23 AM,3.2,-2.2,78,30.05,8.0,Calm,Calm,-,N/A,,Clear,0,2012-11-01 10:23:00
2:55 AM,2.1,-2.0,83,30.06,9.0,Calm,Calm,-,N/A,,Clear,0,2012-11-01 10:55:00
3:55 AM,-3.1,-7.8,80,30.07,10.0,Calm,Calm,-,N/A,,Clear,0,2012-11-01 11:55:00
4:55 AM,-7.1,-11.9,79,30.08,10.0,Calm,Calm,-,N/A,,Clear,0,2012-11-01 12:55:00
5:46 AM,-5.8,-11.2,77,30.09,1.8,Calm,Calm,-,N/A,,Haze,0,2012-11-01 13:46:00
5:47 AM,-5.8,-11.2,77,30.09,1.2,Calm,Calm,-,N/A,Snow,Light Snow,0,2012-11-01 13:47:00
5:48 AM,-5.8,-11.2,77,30.09,1.0,Calm,Calm,-,N/A,Snow,Light Snow,0,2012-11-01 13:48:00
5:51 AM,-5.8,-11.2,77,30.09,0.8,Calm,Calm,-,N/A,Snow,Light Snow,0,2012-11-01 13:51:00
5:54 AM,-5.8,-11.2,77,30.09,0.8,Calm,Calm,-,N/A,Snow,Light Snow,0,2012-11-01 13:54:00
5:56 AM,-5.8,-11.2,77,30.09,1.0,Calm,Calm,-,N/A,Snow,Light Snow,0,2012-11-01 13:56:00
5:57 AM,-5.8,-11.2,77,30.09,1.5,Calm,Calm,-,N/A,,Haze,0,2012-11-01 13:57:00
5:59 AM,-5.8,-11.2,77,30.09,2.5,Calm,Calm,-,N/A,,Clear,0,2012-11-01 13:59:00
6:01 AM,-5.8,-11.2,77,30.09,3.0,Calm,Calm,-,N/A,,Clear,0,2012-11-01 14:01:00
6:55 AM,-8.3,-13.5,78,30.10,10.0,Calm,Calm,-,0.00,,Clear,0,2012-11-01 14:55:00
7:55 AM,-9.8,-15.0,78,30.10,7.0,Calm,Calm,-,N/A,,Clear,0,2012-11-01 15:55:00
8:55 AM,-8.9,-14.1,78,30.12,10.0,Calm,Calm,-,N/A,,Clear,0,2012-11-01 16:55:00
9:55 AM,-9.8,-15.2,77,30.13,10.0,Calm,Calm,-,0.00,,Clear,0,2012-11-01 17:55:00
10:55 AM,-11.2,-16.8,76,30.15,10.0,Calm,Calm,-,0.00,,Clear,0,2012-11-01 18:55:00
11:55 AM,-6.3,-11.4,79,30.16,10.0,Calm,Calm,-,N/A,,Clear,0,2012-11-01 19:55:00
12:55 PM,-0.9,-5.4,81,30.16,10.0,Calm,Calm,-,N/A,,Clear,0,2012-11-01 20:55:00
1:55 PM,2.7,-1.7,82,30.16,10.0,Calm,Calm,-,N/A,,Clear,0,2012-11-01 21:55:00
2:55 PM,6.6,0.5,76,30.16,10.0,Calm,Calm,-,N/A,,Clear,0,2012-11-01 22:55:00
3:55 PM,7.2,1.4,77,30.15,10.0,Calm,Calm,-,N/A,,Clear,0,2012-11-01 23:55:00
4:55 PM,4.5,0.3,83,30.15,10.0,Calm,Calm,-,N/A,,Clear,0,2012-11-02 00:55:00
5:55 PM,-0.4,-4.5,83,30.14,10.0,Calm,Calm,-,N/A,,Clear,0,2012-11-02 01:55:00
6:55 PM,-0.9,-5.3,82,30.14,10.0,Calm,Calm,-,N/A,,Clear,0,2012-11-02 02:55:00
7:55 PM,-5.1,-9.8,80,30.15,10.0,Calm,Calm,-,N/A,,Clear,0,2012-11-02 03:55:00
8:55 PM,-8.7,-13.7,79,30.14,10.0,Calm,Calm,-,N/A,,Clear,0,2012-11-02 04:55:00
9:55 PM,-8.0,-13.2,78,30.14,10.0,Calm,Calm,-,N/A,,Clear,0,2012-11-02 05:55:00
10:55 PM,-12.3,-17.9,76,30.12,10.0,Calm,Calm,-,N/A,,Clear,0,2012-11-02 06:55:00
11:55 PM,-12.8,-18.0,78,30.12,10.0,Calm,Calm,-,N/A,,Clear,0,2012-11-02 07:55:00